BOX442 CYYZ-KORD

Flight info

Callsign BOX442
Flight time 1h 8m
Altitude 34000
Route GOPUP4 HOCKE DCT FNT WYNDE3
Aircraft B77L/H-SDE1E2E3FGHIJ2J3J4J5M1RWXY/LB1D1

Departure

Time 2026-05-06 01:12
Airport Toronto Pearson International Airport (CYYZ)

Arrival

Time 2026-05-06 02:20
Airport Chicago O'Hare International Airport (KORD)
Time Latitude Longitude Altitude Speed Heading
2026-05-06 00:33 43.67953 -79.63136 578 ft 0 kts 316°
2026-05-06 00:37 43.67907 -79.63202 546 ft 0 kts 316°
2026-05-06 00:59 43.67906 -79.63200 571 ft 2 kts 316°
2026-05-06 00:59 43.67894 -79.63184 574 ft 2 kts 319°
2026-05-06 01:00 43.67881 -79.63170 571 ft 2 kts 321°
2026-05-06 01:00 43.67868 -79.63156 579 ft 2 kts 327°
2026-05-06 01:00 43.67853 -79.63145 578 ft 2 kts 342°
2026-05-06 01:00 43.67837 -79.63142 575 ft 2 kts 26°
2026-05-06 01:01 43.67826 -79.63153 578 ft 1 kts 46°
2026-05-06 01:01 43.67824 -79.63155 575 ft 0 kts 47°
2026-05-06 01:05 43.67825 -79.63155 578 ft 1 kts 47°
2026-05-06 01:05 43.67862 -79.63099 578 ft 4 kts 47°
2026-05-06 01:05 43.67894 -79.63052 576 ft 7 kts 47°
2026-05-06 01:06 43.67927 -79.63003 580 ft 7 kts 46°
2026-05-06 01:06 43.67965 -79.62964 578 ft 7 kts 15°
2026-05-06 01:06 43.68012 -79.62985 579 ft 7 kts 327°
2026-05-06 01:06 43.68052 -79.63033 577 ft 10 kts 319°
2026-05-06 01:07 43.68130 -79.63133 576 ft 18 kts 315°
2026-05-06 01:07 43.68222 -79.63255 576 ft 18 kts 317°
2026-05-06 01:07 43.68315 -79.63376 574 ft 18 kts 316°
2026-05-06 01:07 43.68407 -79.63496 574 ft 18 kts 316°
2026-05-06 01:08 43.68499 -79.63617 573 ft 18 kts 317°
2026-05-06 01:08 43.68592 -79.63736 580 ft 18 kts 317°
2026-05-06 01:08 43.68685 -79.63858 576 ft 18 kts 316°
2026-05-06 01:08 43.68765 -79.63962 577 ft 9 kts 318°
2026-05-06 01:09 43.68824 -79.63953 580 ft 11 kts 39°
2026-05-06 01:09 43.68931 -79.63803 580 ft 30 kts 47°
2026-05-06 01:09 43.69043 -79.63640 578 ft 23 kts 46°
2026-05-06 01:09 43.69154 -79.63480 577 ft 23 kts 46°
2026-05-06 01:10 43.69247 -79.63423 573 ft 12 kts
2026-05-06 01:10 43.69328 -79.63406 574 ft 12 kts 24°
2026-05-06 01:10 43.69397 -79.63341 573 ft 12 kts 36°
2026-05-06 01:10 43.69474 -79.63324 575 ft 13 kts 328°
2026-05-06 01:11 43.69479 -79.63417 576 ft 11 kts 225°
2026-05-06 01:11 43.69441 -79.63471 574 ft 27 kts 225°
2026-05-06 01:11 43.69045 -79.64045 577 ft 135 kts 226°
2026-05-06 01:11 43.68201 -79.65272 921 ft 194 kts 228°
2026-05-06 01:12 43.67324 -79.66584 2392 ft 180 kts 231°
2026-05-06 01:12 43.66515 -79.68045 3066 ft 207 kts 236°
2026-05-06 01:12 43.65633 -79.69831 3331 ft 242 kts 238°
2026-05-06 01:12 43.64674 -79.71844 4094 ft 253 kts 239°
2026-05-06 01:13 43.63934 -79.74020 5029 ft 251 kts 264°
2026-05-06 01:13 43.64142 -79.76351 6175 ft 241 kts 284°
2026-05-06 01:13 43.64571 -79.78585 7100 ft 245 kts 281°
2026-05-06 01:13 43.64979 -79.80874 8148 ft 245 kts 279°
2026-05-06 01:14 43.65780 -79.85424 10269 ft 244 kts 276°
2026-05-06 01:14 43.66185 -79.87772 10852 ft 262 kts 276°
2026-05-06 01:14 43.66625 -79.90367 11077 ft 292 kts 277°
2026-05-06 01:15 43.67106 -79.93201 11316 ft 320 kts 277°
2026-05-06 01:15 43.67640 -79.96315 11951 ft 334 kts 278°
2026-05-06 01:15 43.68178 -79.99434 12789 ft 341 kts 278°
2026-05-06 01:15 43.68733 -80.02653 13734 ft 346 kts 278°
2026-05-06 01:16 43.69294 -80.05917 14622 ft 349 kts 278°
2026-05-06 01:16 43.69856 -80.09210 15501 ft 353 kts 278°
2026-05-06 01:16 43.70415 -80.12495 16339 ft 357 kts 277°
2026-05-06 01:16 43.70986 -80.15873 17160 ft 362 kts 277°
2026-05-06 01:17 43.71563 -80.19284 18015 ft 366 kts 277°
2026-05-06 01:17 43.72144 -80.22733 18752 ft 369 kts 277°
2026-05-06 01:17 43.72719 -80.26165 19464 ft 372 kts 276°
2026-05-06 01:17 43.73149 -80.29701 20166 ft 373 kts 272°
2026-05-06 01:18 43.73345 -80.33294 20867 ft 373 kts 267°
2026-05-06 01:18 43.73356 -80.36909 21574 ft 377 kts 266°
2026-05-06 01:18 43.73353 -80.40513 22232 ft 381 kts 266°
2026-05-06 01:18 43.73349 -80.44199 22882 ft 385 kts 266°
2026-05-06 01:19 43.73346 -80.47943 23522 ft 390 kts 266°
2026-05-06 01:19 43.73345 -80.51699 24103 ft 392 kts 266°
2026-05-06 01:19 43.73345 -80.55486 24728 ft 394 kts 266°
2026-05-06 01:19 43.73346 -80.59294 25350 ft 396 kts 266°
2026-05-06 01:20 43.73346 -80.63065 25934 ft 398 kts 266°
2026-05-06 01:20 43.73346 -80.66907 26509 ft 401 kts 266°
2026-05-06 01:20 43.73344 -80.70778 27087 ft 403 kts 266°
2026-05-06 01:20 43.73340 -80.74678 27629 ft 406 kts 266°
2026-05-06 01:21 43.73336 -80.78591 28188 ft 408 kts 267°
2026-05-06 01:21 43.73332 -80.81203 28523 ft 409 kts 267°
2026-05-06 01:21 43.73322 -80.86457 29180 ft 413 kts 267°
2026-05-06 01:21 43.73317 -80.89099 29484 ft 414 kts 267°
2026-05-06 01:22 43.73307 -80.93100 29920 ft 417 kts 267°
2026-05-06 01:22 43.73296 -80.97112 30345 ft 417 kts 267°
2026-05-06 01:22 43.73284 -81.01111 30881 ft 414 kts 267°
2026-05-06 01:22 43.73271 -81.05088 31429 ft 411 kts 267°
2026-05-06 01:23 43.73256 -81.09048 31938 ft 409 kts 267°
2026-05-06 01:23 43.73240 -81.12925 32408 ft 408 kts 267°
2026-05-06 01:23 43.73222 -81.16846 32878 ft 406 kts 267°
2026-05-06 01:23 43.73203 -81.20740 33371 ft 404 kts 267°
2026-05-06 01:24 43.73183 -81.24625 33833 ft 402 kts 268°
2026-05-06 01:24 43.73161 -81.28506 33829 ft 404 kts 268°
2026-05-06 01:24 43.73114 -81.36250 33841 ft 402 kts 267°
2026-05-06 01:25 43.73064 -81.43933 33841 ft 401 kts 267°
2026-05-06 01:25 43.72771 -81.51616 33840 ft 399 kts 259°
2026-05-06 01:26 43.71316 -81.59029 33847 ft 400 kts 252°
2026-05-06 01:26 43.68927 -81.65948 33847 ft 403 kts 243°
2026-05-06 01:27 43.66126 -81.72661 33842 ft 403 kts 243°
2026-05-06 01:27 43.63350 -81.79403 33844 ft 404 kts 244°
2026-05-06 01:28 43.60588 -81.86158 33839 ft 404 kts 244°
2026-05-06 01:28 43.57830 -81.92875 33847 ft 404 kts 244°
2026-05-06 01:29 43.55046 -81.99636 33846 ft 404 kts 244°
2026-05-06 01:29 43.52280 -82.06342 33843 ft 404 kts 244°
2026-05-06 01:30 43.49504 -82.13060 33847 ft 404 kts 244°
2026-05-06 01:30 43.46735 -82.19818 33850 ft 404 kts 245°
2026-05-06 01:31 43.44040 -82.26610 33845 ft 404 kts 245°
2026-05-06 01:31 43.41360 -82.33364 33844 ft 404 kts 245°
2026-05-06 01:32 43.38650 -82.40154 33841 ft 404 kts 245°
2026-05-06 01:32 43.35957 -82.46874 33837 ft 403 kts 245°
2026-05-06 01:33 43.33247 -82.53622 33837 ft 403 kts 245°
2026-05-06 01:33 43.30534 -82.60364 33839 ft 402 kts 245°
2026-05-06 01:34 43.27837 -82.67049 33833 ft 402 kts 245°
2026-05-06 01:34 43.25380 -82.73905 33835 ft 397 kts 252°
2026-05-06 01:35 43.23425 -82.80992 33835 ft 397 kts 252°
2026-05-06 01:35 43.21444 -82.88074 33839 ft 397 kts 252°
2026-05-06 01:36 43.19467 -82.95106 33839 ft 397 kts 252°
2026-05-06 01:36 43.17474 -83.02174 33843 ft 396 kts 252°
2026-05-06 01:37 43.15492 -83.09182 33846 ft 396 kts 252°
2026-05-06 01:37 43.13492 -83.16237 33846 ft 396 kts 252°
2026-05-06 01:38 43.11494 -83.23262 33849 ft 395 kts 252°
2026-05-06 01:38 43.09507 -83.30228 33847 ft 395 kts 252°
2026-05-06 01:39 43.07503 -83.37241 33852 ft 394 kts 252°
2026-05-06 01:39 43.05511 -83.44187 33852 ft 394 kts 252°
2026-05-06 01:40 43.03501 -83.51180 33852 ft 393 kts 252°
2026-05-06 01:40 43.01507 -83.58098 33850 ft 393 kts 252°
2026-05-06 01:41 42.99495 -83.65060 33848 ft 392 kts 252°
2026-05-06 01:41 42.97586 -83.71947 33557 ft 387 kts 256°
2026-05-06 01:42 42.96872 -83.75497 33082 ft 390 kts 258°
2026-05-06 01:42 42.96283 -83.79146 32512 ft 395 kts 260°
2026-05-06 01:42 42.95873 -83.82869 32033 ft 398 kts 262°
2026-05-06 01:42 42.95510 -83.86646 31888 ft 401 kts 262°
2026-05-06 01:43 42.94809 -83.94129 31862 ft 397 kts 262°
2026-05-06 01:43 42.94092 -84.01627 31859 ft 398 kts 262°
2026-05-06 01:44 42.93365 -84.09088 31861 ft 398 kts 262°
2026-05-06 01:44 42.92627 -84.16579 31862 ft 398 kts 262°
2026-05-06 01:45 42.91882 -84.24074 31862 ft 398 kts 262°
2026-05-06 01:45 42.91139 -84.31504 31862 ft 397 kts 262°
2026-05-06 01:46 42.90386 -84.38989 31869 ft 397 kts 262°
2026-05-06 01:46 42.89629 -84.46457 31872 ft 397 kts 262°
2026-05-06 01:47 42.88875 -84.53859 31871 ft 396 kts 262°
2026-05-06 01:47 42.88110 -84.61314 31870 ft 396 kts 262°
2026-05-06 01:48 42.87342 -84.68756 31870 ft 396 kts 262°
2026-05-06 01:48 42.86578 -84.76130 31873 ft 395 kts 261°
2026-05-06 01:49 42.85805 -84.83553 31877 ft 395 kts 261°
2026-05-06 01:49 42.85026 -84.90974 31879 ft 395 kts 261°
2026-05-06 01:50 42.84240 -84.98400 31881 ft 394 kts 261°
2026-05-06 01:50 42.83456 -85.05747 31884 ft 394 kts 261°
2026-05-06 01:51 42.82713 -85.12681 31885 ft 393 kts 261°
2026-05-06 01:51 42.81915 -85.20081 31880 ft 393 kts 261°
2026-05-06 01:52 42.81118 -85.27422 31882 ft 393 kts 261°
2026-05-06 01:52 42.80315 -85.34776 31872 ft 392 kts 261°
2026-05-06 01:53 42.79514 -85.42084 31873 ft 392 kts 261°
2026-05-06 01:53 42.78681 -85.49444 31867 ft 392 kts 259°
2026-05-06 01:54 42.77443 -85.56660 31873 ft 391 kts 257°
2026-05-06 01:54 42.76145 -85.63828 31878 ft 391 kts 257°
2026-05-06 01:55 42.74855 -85.70997 31884 ft 391 kts 257°
2026-05-06 01:55 42.73558 -85.78180 31882 ft 389 kts 257°
2026-05-06 01:56 42.72288 -85.85176 31876 ft 365 kts 257°
2026-05-06 01:56 42.71054 -85.91959 31893 ft 379 kts 257°
2026-05-06 01:57 42.69767 -85.99014 31678 ft 383 kts 256°
2026-05-06 01:57 42.69124 -86.02525 31577 ft 383 kts 256°
2026-05-06 01:57 42.68482 -86.06023 31209 ft 373 kts 256°
2026-05-06 01:58 42.67869 -86.09355 30383 ft 364 kts 255°
2026-05-06 01:58 42.67252 -86.12705 29428 ft 361 kts 255°
2026-05-06 01:58 42.66648 -86.15974 27922 ft 352 kts 255°
2026-05-06 01:58 42.66051 -86.19203 26203 ft 352 kts 255°
2026-05-06 01:59 42.65451 -86.22444 24562 ft 354 kts 255°
2026-05-06 01:59 42.64845 -86.25707 23001 ft 356 kts 255°
2026-05-06 01:59 42.64247 -86.28927 21566 ft 354 kts 255°
2026-05-06 01:59 42.63648 -86.32145 20108 ft 349 kts 256°
2026-05-06 02:00 42.63046 -86.35372 18679 ft 360 kts 256°
2026-05-06 02:00 42.62417 -86.38740 17475 ft 373 kts 256°
2026-05-06 02:00 42.61780 -86.42146 16608 ft 364 kts 256°
2026-05-06 02:00 42.61176 -86.45370 16306 ft 340 kts 256°
2026-05-06 02:01 42.60595 -86.48470 16138 ft 348 kts 256°
2026-05-06 02:01 42.59993 -86.51675 16054 ft 349 kts 256°
2026-05-06 02:01 42.59397 -86.54842 16046 ft 345 kts 256°
2026-05-06 02:01 42.58803 -86.57994 16041 ft 344 kts 256°
2026-05-06 02:02 42.58209 -86.61140 16045 ft 345 kts 256°
2026-05-06 02:02 42.57612 -86.64304 16046 ft 345 kts 256°
2026-05-06 02:02 42.57019 -86.67432 16044 ft 346 kts 256°
2026-05-06 02:02 42.56417 -86.70605 16048 ft 346 kts 256°
2026-05-06 02:03 42.55729 -86.73751 15877 ft 349 kts 251°
2026-05-06 02:03 42.54900 -86.76853 15501 ft 349 kts 251°
2026-05-06 02:03 42.54057 -86.79933 15137 ft 346 kts 251°
2026-05-06 02:03 42.53231 -86.82943 14794 ft 342 kts 251°
2026-05-06 02:04 42.52404 -86.85964 14447 ft 339 kts 251°
2026-05-06 02:04 42.51589 -86.88953 14110 ft 338 kts 251°
2026-05-06 02:04 42.50775 -86.91943 13765 ft 337 kts 251°
2026-05-06 02:04 42.49964 -86.94922 13382 ft 336 kts 251°
2026-05-06 02:05 42.49169 -86.97847 13036 ft 335 kts 251°
2026-05-06 02:05 42.48362 -87.00808 12681 ft 333 kts 251°
2026-05-06 02:05 42.47556 -87.03767 12335 ft 332 kts 251°
2026-05-06 02:05 42.46769 -87.06652 11996 ft 325 kts 251°
2026-05-06 02:06 42.45994 -87.09484 11666 ft 317 kts 251°
2026-05-06 02:06 42.45236 -87.12250 11342 ft 309 kts 250°
2026-05-06 02:06 42.44497 -87.14945 11030 ft 302 kts 250°
2026-05-06 02:06 42.43773 -87.17584 10734 ft 294 kts 250°
2026-05-06 02:07 42.43068 -87.20153 10430 ft 287 kts 250°
2026-05-06 02:07 42.42378 -87.22666 10135 ft 281 kts 250°
2026-05-06 02:07 42.41715 -87.25077 9922 ft 266 kts 250°
2026-05-06 02:07 42.41095 -87.27328 9628 ft 248 kts 250°
2026-05-06 02:08 42.40506 -87.29462 9331 ft 237 kts 250°
2026-05-06 02:08 42.39915 -87.31607 9081 ft 244 kts 251°
2026-05-06 02:08 42.39332 -87.33717 8992 ft 245 kts 251°
2026-05-06 02:08 42.38733 -87.35887 8861 ft 244 kts 251°
2026-05-06 02:09 42.38136 -87.38046 8770 ft 244 kts 251°
2026-05-06 02:09 42.37532 -87.40228 8681 ft 250 kts 251°
2026-05-06 02:09 42.36936 -87.42381 8571 ft 247 kts 251°
2026-05-06 02:09 42.36323 -87.44593 8476 ft 253 kts 251°
2026-05-06 02:10 42.35706 -87.46819 8371 ft 251 kts 251°
2026-05-06 02:10 42.35094 -87.49019 8259 ft 247 kts 251°
2026-05-06 02:10 42.34498 -87.51159 8177 ft 246 kts 251°
2026-05-06 02:10 42.33789 -87.53272 8055 ft 248 kts 236°
2026-05-06 02:11 42.32527 -87.54892 7973 ft 252 kts 220°
2026-05-06 02:11 42.31129 -87.56346 7897 ft 256 kts 221°
2026-05-06 02:11 42.29713 -87.57845 7789 ft 260 kts 221°
2026-05-06 02:11 42.28301 -87.59342 7676 ft 262 kts 221°
2026-05-06 02:12 42.26776 -87.60654 7557 ft 262 kts 202°
2026-05-06 02:12 42.25002 -87.61124 7161 ft 259 kts 190°
2026-05-06 02:12 42.23216 -87.61395 6466 ft 258 kts 188°
2026-05-06 02:12 42.21433 -87.61664 6080 ft 253 kts 188°
2026-05-06 02:13 42.19623 -87.61940 5943 ft 269 kts 188°
2026-05-06 02:13 42.17778 -87.62225 5768 ft 268 kts 188°
2026-05-06 02:13 42.15919 -87.62515 5593 ft 271 kts 188°
2026-05-06 02:13 42.14033 -87.62813 5416 ft 272 kts 188°
2026-05-06 02:14 42.12158 -87.63111 5231 ft 270 kts 188°
2026-05-06 02:14 42.10302 -87.63407 5053 ft 266 kts 189°
2026-05-06 02:14 42.08476 -87.63698 4882 ft 263 kts 189°
2026-05-06 02:14 42.06694 -87.63984 4712 ft 260 kts 189°
2026-05-06 02:15 42.04894 -87.64273 4538 ft 259 kts 188°
2026-05-06 02:15 42.03096 -87.64561 4359 ft 261 kts 189°
2026-05-06 02:15 42.01318 -87.64894 4202 ft 251 kts 197°
2026-05-06 02:15 41.99863 -87.65995 3949 ft 233 kts 232°
2026-05-06 02:16 41.99164 -87.67832 3734 ft 214 kts 263°
2026-05-06 02:16 41.98978 -87.69730 3485 ft 203 kts 266°
2026-05-06 02:16 41.98854 -87.71577 3258 ft 192 kts 270°
2026-05-06 02:16 41.98828 -87.73306 2992 ft 177 kts 273°
2026-05-06 02:17 41.98828 -87.74903 2740 ft 167 kts 273°
2026-05-06 02:17 41.98828 -87.76416 2533 ft 155 kts 274°
2026-05-06 02:17 41.98828 -87.77783 2287 ft 141 kts 274°
2026-05-06 02:17 41.98819 -87.79063 2139 ft 137 kts 273°
2026-05-06 02:18 41.98832 -87.80366 1953 ft 141 kts 274°
2026-05-06 02:18 41.98831 -87.81683 1745 ft 139 kts 273°
2026-05-06 02:18 41.98824 -87.82978 1540 ft 138 kts 274°
2026-05-06 02:18 41.98838 -87.84276 1379 ft 140 kts 272°
2026-05-06 02:19 41.98830 -87.85596 1250 ft 142 kts 272°
2026-05-06 02:19 41.98832 -87.86930 1017 ft 145 kts 272°
2026-05-06 02:19 41.98829 -87.88261 817 ft 139 kts 271°
2026-05-06 02:19 41.98830 -87.89552 678 ft 133 kts 272°
2026-05-06 02:20 41.98831 -87.91314 671 ft 43 kts 270°
2026-05-06 02:20 41.98831 -87.91514 672 ft 18 kts 270°
2026-05-06 02:20 41.98830 -87.91685 672 ft 37 kts 270°
2026-05-06 02:21 41.98830 -87.92140 676 ft 44 kts 270°
2026-05-06 02:21 41.98787 -87.92403 676 ft 12 kts 200°
2026-05-06 02:21 41.98701 -87.92407 675 ft 13 kts 180°
2026-05-06 02:21 41.98658 -87.92406 675 ft 9 kts 180°
2026-05-06 02:22 41.98596 -87.92407 675 ft 9 kts 180°
2026-05-06 02:22 41.98535 -87.92408 674 ft 9 kts 181°
2026-05-06 02:22 41.98474 -87.92409 673 ft 0 kts 180°
2026-05-06 02:22 41.98461 -87.92409 672 ft 4 kts 180°